User: anonymous   Login
Location: Unspecified
(0.0000°N, 0.0000°E)
Time: 01:52:48
(UTC+00:00)
Language:

Vanguard 2 - Orbit

View from above orbital plane
View from above orbital plane
View from above satellite
View from above satellite

Ground track
Ground track

The orbit data is extracted from the following two-line orbital elements,

1    11U 59001A   17176.50823897 +.00000112 +00000-0 +39951-4 0  9996
2    11 032.8728 179.2525 1468246 230.8787 115.1999 11.85417952145829
Epoch (UTC): 25 June 2017 12:11:51
Eccentricity: 0.1468246
inclination: 32.8728°
perigee height: 554 km
apogee height: 2940 km
right ascension of ascending node: 179.2525°
argument of perigee: 230.8787°
revolutions per day: 11.85417952
mean anomaly at epoch: 115.1999°
orbit number at epoch: 14582

The dashed part of the orbit path shows where the satellite is in the earth's shadow,  

DLR